SEBI

Registration No.

INH000000305

Ip Address Lookup

So far visitors:

customizable counter

TRIAL

TRIAL

SEND SMS FOR TRIAL

EQUITY - COMMODITY OR BOTH

TO

 09920033678

AND GET TRIAL

 


Information: COPPER (MCX): LOT SIZE CHANGED TO 2500 from 1000 (from JUL CONTRACT)

SEBI Registration No.: INH000000305 *****

* Commodity: 9500/month * Equity: 6000/month


* Gold Package: 7000 * Gold-Silver Package: 8100
*Crude-NG-Copper-Nickel Package: 6000


To See Past Performance, Click Here

For TRIAL / Registration,

click here

Past Performance >> Commodity
 
Search
 
Entry Start Date Entry End Date
Exit Start Date Exit End Date
Scrip Name Contract
Package
 

Packages: Precious Metals - Energy and Base Metals - Profit is calculated on basis of 1 lot per call

Package: Equity calls: Profit is calculated as follows:

1. If the scrip is in F & O then 1 lot is counted otherwise

2. Trade of Rs.1,50,000/- per call is counted.

 
Page: ( 1 2 3 4 5 6 7 8 9 10 11 12 13 14 15 16 17 18 19 20 21 22 23 24 25 26 27 28 29 30 31 32 33 34 35 36 37 38 39 40 41 42 43 44 45 46 47 48 49 50 51 52 53 54 55 56 57 58 59 60 61 62 63 64 65 66 67 68 69 70 71 72 73 74 75 76 77 78 79 80 81 ) [Current Page: 68]
Displaying 5026 to 5100   Calls
Entry Date Type Scrip Entry Price (Rs) T1
(Rs)
T2
(Rs)
T3
(Rs)
Stop Loss
(Rs)
Exit Date Exit Rate
(Rs)
Profit
(Rs)
 
07-02-14 Buy Above TITAN 228 232 236 --- 225 07-02-14 225 -3000.00 More
06-02-14 Buy Above TATA STEEL 361 366 370 375 355 07-02-14 375 14000.00 More
06-02-14 Buy Above Crompton Greaves 120 124 126 128 116 13-02-14 127 28000.00 More
05-02-14 Buy Above AURO PHARMA 485 490 495 500 475 06-02-14 500 30000.00 More
04-02-14 Sell Below HINDALCO 103 100 98 96 107 07-02-14 107 -8000.00 More
04-02-14 Sell YES BANK 298 294 290 285 303 04-02-14 294 4000.00 More
03-02-14 Sell Below HDFC 804 795 790 785 813 04-02-14 785 9500.00 More
31-01-14 Buy Above BHEL 163 166 168 175 157 03-02-14 164.95 3900.00 More
29-01-14 Buy Above IRB Infra 72 74 76 78 70 29-01-14 73.25 5000.00 More
29-01-14 Buy Above ARVIND 140 142 145 --- 138 29-01-14 141.70 6800.00 More
28-01-14 Sell Below SIEMENS 535 530 525 --- 543 28-01-14 525 5000.00 More
28-01-14 Sell Below NTPC 129 127 125 --- 131 30-01-14 126.30 5400.00 More
24-01-14 Sell Below ACC 1015 1005 995 985 1026 27-01-14 985 7500.00 More
22-01-14 Buy Above ICICI BANK 1080 1090 1100 1110 1065 22-01-14 1092 3000.00 More
21-01-14 Buy Above VOLTAS 110 112 114 --- 108 21-01-14 108 -8000.00 More
20-01-14 Sell Below AXIS BANK 1145 1135 1120 --- 1155 20-01-14 1135 2500.00 More
20-01-14 Sell Below JSWSteel 995 985 975 --- 1005 20-01-14 1005 -5000.00 More
17-01-14 Sell Below TATA MOTORS 368 364 360 --- 372 20-01-14 372 -4000.00 More
16-01-14 Buy Above BOI 241 245 248 252 235 16-01-14 235 -12000.00 More
16-01-14 Buy Above 213 216 218 220 210 16-01-14 217.50 9000.00 More
15-01-14 Buy Above CESC 464 468 472 475 459 15-01-14 459 -5000.00 More
13-01-14 Buy Above HCL TECH 1310 1325 1340 1360 1295 13-01-14 1349 9750.00 More
13-01-14 Buy Above DR REDDY 2635 2650 2670 2690 2615 15-01-14 2668 4125.00 More
10-01-14 Sell Below ACC 1050 1040 1030 1020 1065 13-01-14 1031 4750.00 More
10-01-14 Sell Below HINDALCO 112 110 108 106 113.50 13-01-14 109 6000.00 More
09-01-14 Sell Below 995 985 975 965 1006 10-01-14 965 15000.00 More
09-01-14 Sell Below VOLTAS 116 114 112 --- 118 10-01-14 112 16000.00 More
08-01-14 Buy Above MARUTI 1855 1865 1875 1885 1840 08-01-14 1840 -3750.00 More
08-01-14 Sell Below ADANI ENT 242 237 232 --- 246 08-01-14 238 8000.00 More
07-01-14 Buy Above TCS 2250 2270 2280 2290 2230 07-01-14 2230 -2500.00 More
07-01-14 Sell Below ICICI BANK 1043 1033 1023 --- 1053 07-01-14 1031 3000.00 More
06-01-14 Sell Below PNB 613 605 598 590 622 13-01-14 590 11500.00 More
06-01-14 Sell Below M&M 904 895 885 --- 913 07-01-14 896 2000.00 More
03-01-14 Sell Below SBI 1735 1710 1690 --- 1755 06-01-14 1690 5625.00 More
03-01-14 Sell Below ITC 315 311 308 --- 318 03-01-14 312.50 2500.00 More
02-01-14 Buy Above IRB Infra 98 100 102 --- 96 02-01-14 100.40 9600.00 More
02-01-14 Buy Above PNB 643 648 655 660 637 02-01-14 659 8000.00 More
01-01-14 Buy Above HCL TECH 1270 1280 1290 1300 1258 02-01-14 1258 -3000.00 More
01-01-14 Buy Above LICHSGFIN 221 224 226 228 218 01-01-14 226 10000.00 More
27-12-13 Buy Above JSWSteel 1010 1020 1030 1040 995 02-01-14 1040 15000.00 More
24-12-13 Buy Above ADANI ENT 276 282 285 290 269 24-12-13 269 -7000.00 More
23-12-13 Buy Above TCS 2130 2150 2170 2200 2100 26-12-13 2100 -3750.00 More
23-12-13 Buy Above DR REDDY 2520 2540 2560 2600 2490 26-12-13 2555 4375.00 More
20-12-13 Buy Above WIPRO 535 540 545 550 530 20-12-13 550 7500.00 More
20-12-13 Buy Above JSWSteel 965 975 980 985 955 23-12-13 985 10000.00 More
19-12-13 Buy Above BHEL 165 170 175 --- 162 19-12-13 162 -6000.00 More
19-12-13 Buy Above DR REDDY 2475 2500 2525 2550 2450 20-12-13 2520 5625.00 More
19-12-13 Buy Above HCL TECH 1200 1210 1220 1230 1185 19-12-13 1230 7500.00 More
17-12-13 Buy Above INFY 3465 3480 3500 3525 3445 19-12-13 3520 6875.00 More
16-12-13 Sell Below RComm 128 125 123 121 131.50 18-12-13 131.50 -7000.00 More
13-12-13 Sell Below 180 176 172 --- 183 13-12-13 172.50 15000.00 More
12-12-13 Buy Above CESC 412 416 419 --- 408 12-12-13 419 7000.00 More
11-12-13 Sell Below Ranbaxy 424 418 412 --- 428 11-12-13 428 -2000.00 More
11-12-13 Sell Below M&M 955 947 935 --- 964 11-12-13 947 2000.00 More
10-12-13 Buy Above HINDALCO 126.50 128 130 132 123 11-12-13 127.70 2400.00 More
06-12-13 Buy Above GRASIM 2715 2750 2770 2825 2685 09-12-13 2825 13750.00 More
06-12-13 Buy Above Crompton Greaves 129 133 137 140 125.50 10-12-13 136.50 30000.00 More
05-12-13 Buy Above Adani Power 40 41.50 42 43 38.50 09-12-13 42.90 23200.00 More
05-12-13 Buy Above BHEL 166 170 174 178 163 09-12-13 175.50 19000.00 More
02-12-13 Buy Above AXIS BANK 1171 1180 1190 --- 1159 02-12-13 1190 4750.00 More
02-12-13 Buy Above 1055 1065 1075 1085 1040 03-12-13 1085 11250.00 More
02-12-13 Buy Above ACC 1110 1120 1130 1155 1090 09-12-13 1155 11250.00 More
28-11-13 Buy Above PTC 62.50 63.50 64.50 --- 61 28-11-13 64.50 8000.00 More
27-11-13 Buy Above AURO PHARMA 295 299 303 --- 289 27-11-13 289 -12000.00 More
27-11-13 Sell Below CIPLA 384 380 375 388 28-11-13 380 2000.00 More
26-11-13 Buy Above ACC 1085 1085 1105 1115 1070 26-11-13 1093 2000.00 More
26-11-13 Buy Above BHEL 145.50 150 154 158 141 28-11-13 152.50 14000.00 More
25-11-13 Buy Above BATA 1053 1065 1075 --- 1043 27-11-13 1075 5500.00 More
25-11-13 Buy Above 331 334 338 --- 328 26-11-13 337 6000.00 More
21-11-13 Sell Below BPCL 334 330 328 325 341.50 22-11-13 328.50 5500.00 More
20-11-13 Buy Above MARUTI 1695 1710 1720 1730 1675 20-11-13 1707 3000.00 More
20-11-13 Buy Above HDIL 48.50 51 53 55 45.50 20-11-13 50.50 8000.00 More
20-11-13 Sell CIPLA 399 395 390 385 403 22-11-13 385 7000.00 More
19-11-13 Buy Above HINDALCO 121.50 124 126 128 119 19-11-13 125 7000.00 More
18-11-13 Buy Above TATA STEEL 380 385 390 --- 371 19-11-13 390 10000.00 More
Page wise profit 431925.00 Rs
Profit 20194092.75 Rs
TRIAL

TRIAL

SEND SMS FOR TRIAL

EQUITY - COMMODITY OR BOTH

TO

 09920033678

AND GET TRIAL